MEXSAT 3

Last updated on Sat Oct 05 2024 00:02:39 GMT+0000 (Coordinated Universal Time)

1 39035U 12075B 24278.54834311 -.00000017 00000+0 00000+0 0 9994 2 39035 0.0195 166.4584 0001602 12.0788 277.8076 1.00272435 43251
UTC large
Height (km)
Speed (km/s)
/
Latitude / Longitude
Inclination (degrees)
Orbital Period (minutes)
Azimuth
Elevation
Range (km)
Doppler Factor

Next 0 passes for location: London (51.5072 / 0.1276)

Sorry there are no passes over London.